{"data":{"norad_id":48606,"epoch":"2026-09-20T09:36:20.100096Z","epoch_age_seconds":103284,"freshness":"FRESH","line1":"1 48606U 21041BF  26263.40023264  .00004812  00000+0  18241-3 0  9995","line2":"2 48606  52.9943 303.5094 0010852 105.9820 254.2375 15.28704863294943","mean_motion":15.28704863,"eccentricity":0.0010852,"inclination_deg":52.9943,"raan_deg":303.5094,"arg_perigee_deg":105.982,"mean_anomaly_deg":254.2375,"bstar":0.00018241,"rev_number":29494,"period_min":94.197384652396,"perigee_km":472.24081091748,"apogee_km":487.12502326553,"semimajor_km":6857.8199170915,"source":"CELESTRAK","updated_at":"2026-09-21T09:00:07.850146Z"}}